This is the latest recevied weather packets stored in our database for station/object N7WSS. If no packets are shown the sender has not sent any weather packets the latest 10 day(s).
| Time | Temp. | Humidity | Pressure | Rain* | Wind** | Luminosity | Snow |
|---|---|---|---|---|---|---|---|
| 1777518903 | 21.11° C | 19% | 1012.1 hPa | 0 mm | - | - | - |
| 1777518600 | 21.11° C | 19% | 1011.9 hPa | 0 mm | - | - | - |
| 1777518296 | 21.67° C | 19% | 1011.7 hPa | 0 mm | - | - | - |
| 1777517992 | 21.67° C | 18% | 1011.9 hPa | 0 mm | - | - | - |
| 1777517688 | 21.67° C | 19% | 1011.6 hPa | 0 mm | - | - | - |
| 1777517384 | 21.67° C | 19% | 1011.7 hPa | 0 mm | - | - | - |
| 1777517079 | 21.67° C | 19% | 1011.6 hPa | 0 mm | - | - | - |
| 1777516776 | 22.22° C | 18% | 1011.2 hPa | 0 mm | - | - | - |
| 1777516471 | 22.22° C | 19% | 1011.4 hPa | 0 mm | - | - | - |
| 1777516167 | 22.22° C | 18% | 1011.3 hPa | 0 mm | - | - | - |
| 1777515865 | 22.78° C | 18% | 1011.2 hPa | 0 mm | - | - | - |
| 1777515561 | 22.78° C | 17% | 1011.2 hPa | 0 mm | - | - | - |
| 1777515259 | 22.78° C | 17% | 1011.3 hPa | 0 mm | - | - | - |
| 1777514954 | 23.33° C | 17% | 1011.2 hPa | 0 mm | - | - | - |
| 1777514651 | 23.33° C | 16% | 1010.9 hPa | 0 mm | - | - | - |
| 1777514348 | 23.89° C | 16% | 1010.8 hPa | 0 mm | - | - | - |
| 1777514045 | 24.44° C | 16% | 1010.8 hPa | 0 mm | - | - | - |
| 1777513742 | 24.44° C | 15% | 1010.8 hPa | 0 mm | - | - | - |
| 1777513439 | 24.44° C | 16% | 1010.9 hPa | 0 mm | - | - | - |
| 1777513136 | 24.44° C | 16% | 1010.8 hPa | 0 mm | - | - | - |
| 1777512831 | 24.44° C | 15% | 1010.7 hPa | 0 mm | - | - | - |
| 1777511922 | 25° C | 15% | 1011.1 hPa | 0 mm | - | - | - |
| 1777509193 | 26.11° C | 15% | 1010.8 hPa | 0 mm | - | - | - |
| 1777506465 | 26.67° C | 13% | 1011.1 hPa | 0 mm | - | - | - |
| 1777506161 | 27.22° C | 13% | 1011.1 hPa | 0 mm | - | - | - |
* Rain latest hour (hover to see other rain measurements)
** Current wind speed in m/s (hover to see current wind gust speed)